Content
SEND FEEDBACK

Daily
Averages
Monthly
Summary
United States of America

ST. LOUIS - SAINT LOUIS UNIVERSITY, MISSOURI


Home > North America > United States > Missouri
Elevation: 580 feet     Latitude: 38 38N     Longitude: 090 14W

WEATHER
 
SELECT A DAY
Number of Records: 186,007;   Date Range: 1/1/95 - 7/23/14
 
SHARE

PRINT THIS DATA

[ ← Previous Day ]
WEATHER ALMANAC - JANUARY 24, 2013
[ Next Day → ]
[ °C ]   °F
Weather ElementAverageHighLow
Temperature22.8 °F27 °F (10:53 pm)16 °F (6:53 am)
Dewpoint6.8 °F12 °F (1:53 am)1.9 °F (7:53 am)
Humidity51 %68 % (6:53 am)43 % (4:53 pm)
Barometer30.48 in30.63 in (9:53 am)30.27 in (11:53 pm)
Wind Speed11.4 mph18.4 mph (1:53 am)
Wind Gust23 mph (1:53 am)
Weather ElementAverage
Visibility10 mi
Wind DirectionESE (105.7 °)

Weather ElementTotal
Precipitation---
Heating Degree Days43.5 (Base 65)
Averaged from 23 records on January 24, 2013
WEATHER CONDITIONS BREAKOUT
WIND DIRECTION BREAKOUT
WEATHER BY HOUR - JANUARY 24, 2013
[ °C ]   °F
Local TimeTemperatureDewpointHumidityBarometerVisibilityWind DirectionWind SpeedGust SpeedPrecipitationEventsConditions
1:53 AM25.0 °F12.0 °F58 %30.43 in10.0 miNorth (360°)18.4 mph23.0 mphClear
2:53 AM21.0 °F7.0 °F55 %30.48 in10.0 miNorth (350°)16.1 mphClear
3:53 AM19.9 °F7.0 °F57 %30.49 in10.0 miNorth (10°)11.5 mphClear
4:53 AM18.0 °F6.1 °F60 %30.52 in10.0 miNNE (20°)10.4 mphClear
5:53 AM17.1 °F6.1 °F62 %30.56 in10.0 miNNE (20°)11.5 mphClear
6:53 AM16.0 °F7.0 °F68 %30.58 in10.0 miNNE (30°)6.9 mphClear
7:53 AM16.0 °F1.9 °F54 %30.58 in10.0 miNNE (30°)9.2 mphPartly Cloudy
8:53 AM18.0 °F3.0 °F52 %30.60 in10.0 miNNE (30°)11.5 mphClear
9:53 AM19.0 °F3.0 °F50 %30.63 in10.0 miNE (50°)13.8 mphClear
10:53 AM19.9 °F3.9 °F50 %30.63 in10.0 miENE (70°)9.2 mphClear
11:53 AM23.0 °F3.9 °F44 %30.59 in10.0 miEast (90°)8.1 mph18.4 mphClear
12:53 PM25.0 °F6.1 °F45 %30.55 in10.0 miEast (100°)13.8 mphClear
1:53 PM25.0 °F6.1 °F45 %30.51 in10.0 miEast (100°)10.4 mphClear
2:53 PM26.1 °F7.0 °F44 %30.49 in10.0 miEast (100°)12.7 mphClear
3:53 PM26.1 °F7.0 °F44 %30.46 in10.0 miEast (100°)11.5 mphOvercast
4:53 PM26.1 °F6.1 °F43 %30.45 in10.0 miEast (100°)9.2 mphClear
5:53 PM26.1 °F8.1 °F47 %30.44 in10.0 miESE (110°)9.2 mphClear
6:53 PM25.0 °F8.1 °F49 %30.41 in10.0 miESE (120°)12.7 mph20.7 mphClear
7:53 PM25.0 °F9.0 °F51 %30.40 in10.0 miESE (120°)11.5 mphOvercast
8:53 PM26.1 °F9.0 °F49 %30.36 in10.0 miESE (120°)12.7 mphOvercast
9:53 PM26.1 °F9.0 °F49 %30.35 in10.0 miSE (140°)10.4 mphOvercast
10:53 PM27.0 °F10.0 °F49 %30.30 in10.0 miSE (130°)9.2 mphOvercast
11:53 PM27.0 °F9.0 °F47 %30.27 in10.0 miSE (130°)11.5 mphOvercast
Hourly data recorded from KCPS, located miles away from St. Louis - Saint Louis University, Missouri







STORIES FROM OUR PARTNERS